Regional Weather Roundup
Issued by NWS

Home | Current Version | Previous Version | Text Only | Print | Product List | Glossary Off
Versions: 1 2 3 4 5 6 7 8 9 10 11 12 13 14 15 16 17 18 19 20 21 22 23 24 25 26 27 28 29 30 31 32 33 34 35 36 37 38 39 40 41 42 43 44 45 46 47 48 49 50

000
ASUS43 KLOT 231110
RWRIL

ILLINOIS REGIONAL WEATHER ROUNDUP
NATIONAL WEATHER SERVICE CHICAGO/ROMEOVILLE IL
600 AM CDT WED APR 23 2014

NOTE: "FAIR" INDICATES FEW OR NO CLOUDS BELOW 12,000 FEET WITH NO
SIGNIFICANT WEATHER AND/OR OBSTRUCTIONS TO VISIBILITY.

* THESE STATIONS ARE NOT UNDER NWS QUALITY CONTROL. THEY ALSO MAY NOT
  REPORT WEATHER SUCH AS PRECIPITATION OR FOG.

ILZ001-002-007-009-015-016-024-231200-
NORTHWEST ILLINOIS

CITY           SKY/WX    TMP DP  RH WIND       PRES   REMARKS
MOLINE         CLEAR     33  29  85 E5        30.14R WCI  29
STERLING*      CLEAR     30  25  80 E5        30.15R WCI  25
SAVANNA*       CLEAR     33  30  88 NE5       30.16R WCI  29
$$

ILZ003-004-008-010-011-017-018-231200-
NORTH CENTRAL ILLINOIS

CITY           SKY/WX    TMP DP  RH WIND       PRES   REMARKS
ROCKFORD       PTCLDY    34  27  75 CALM      30.17R
FREEPORT*      CLEAR     27  24  89 CALM      30.17R
ROCHELLE*      CLEAR     31  27  86 CALM      30.16R
DE KALB*       CLEAR     29  26  90 NE3       30.15R
PERU*          CLEAR     34  29  83 CALM      30.15R
$$

ILZ005-006-012>014-019>023-231200-
NORTHEAST ILLINOIS

CITY           SKY/WX    TMP DP  RH WIND       PRES   REMARKS
CHICAGO-OHARE  PTCLDY    34  26  72 N5        30.14R WCI  30
CHICAGO-MIDWAY PTCLDY    37  28  70 N10       30.14R WCI  30
AURORA         CLEAR     31  25  78 NE5       30.15R WCI  26
LANSING*       CLEAR     36  27  71 NE16G23   30.13S WCI  26
JOLIET*        CLEAR     34  28  80 NE3       30.15R
WAUKEGAN       CLEAR     27  25  92 NW3       30.14S
DUPAGE AIRPORT CLEAR     29  26  89 N6        30.14R WCI  23
KANKAKEE*      CLEAR     34  30  85 N7        30.14R WCI  28
WHEELING       CLEAR     33  28  81 N5        30.16R WCI  29
MORRIS*        CLEAR     33  27  76 N3        30.15R
ROMEOVILLE*    CLEAR     34  28  80 NE10      30.14R WCI  26
NORTHERLY ISL    N/A     37  29  73 N18         N/A  WCI  27
$$

LMZ740>746-231200-
SOUTHERN LAKE MICHIGAN

STATION/POSITION SKY/WX   TEMP    WIND        PRES    VSBY  WAVE
                          AIR SEA DIR/SP/G                  HT/PER
                          (F)     (DEG/KT/KT) (MB)    (MI)  (FT/S)
WAUKEGAN HARBOR            35     340/  6/ 10 1022.4S
HARRISON CRIB              37      10/ 19/ 23   N/A
BURNHAM HARBOR             37      20/ 17/ 18   N/A
CALUMET HARBOR             37     360/ 15/ 19 1021.4S
MICHIGAN CITY              36     360/ 22/ 25   N/A
$$

ILZ025>027-034>036-040-047-049-050-058-095>099-231200-
WEST-CENTRAL ILLINOIS

CITY           SKY/WX    TMP DP  RH WIND       PRES   REMARKS
QUINCY         PTCLDY    43  33  68 E10       30.09R
GALESBURG*     CLEAR     36  31  82 E5        30.13R WCI  32
MACOMB*        PTCLDY    37  31  80 E7        30.13R WCI  31
JACKSONVILLE*  CLEAR     36  31  82 E7        30.11R WCI  30
PITTSFIELD*    CLEAR     43  33  68 E8        30.11R
$$

ILZ028>032-037-038-041>044-048-051>054-059>061-231200-
CENTRAL ILLINOIS

CITY           SKY/WX    TMP DP  RH WIND       PRES   REMARKS
PONTIAC        CLEAR     34  28  80 CALM      30.14S
BLOOMINGTON    CLEAR     31  27  85 NE10      30.14R WCI  22
DECATUR        CLEAR     33  27  78 NE6       30.12R WCI  28
PEORIA         CLEAR     40  27  59 E8        30.14R
LACON*         CLEAR     30  27  89 NE5       30.15R WCI  25
LINCOLN*       CLEAR     36  30  79 E7        30.14R WCI  30
SPRINGFIELD    CLEAR     40  28  62 E10       30.11S
TAYLORVILLE    CLEAR     37  30  75 E12       30.10S WCI  30
$$

ILZ033-039-045-046-055>057-062-063-231200-
EAST-CENTRAL ILLINOIS

CITY           SKY/WX    TMP DP  RH WIND       PRES   REMARKS
CHAMPAIGN      CLEAR     37  28  70 NE7       30.13R WCI  32
RANTOUL*       CLEAR     37  29  72 CALM      30.14R
MATTOON        CLEAR     37  28  70 NE5       30.11R WCI  33
PARIS*         PTCLDY    36  29  77 CALM      30.13R
$$

ILZ079-100>102-231200-
SOUTHWEST ILLINOIS

CITY           SKY/WX    TMP DP  RH WIND       PRES   REMARKS
ALTON          CLEAR     44  35  72 NE8       30.09R
BELLEVILLE     CLEAR     44  38  79 NE5       30.08R
CAHOKIA*       CLEAR     44  36  73 E8        30.08R
SPARTA*        CLEAR     45  34  65 NE8       30.08R
$$

ILZ064>066-069>071-074>076-080>082-084>086-088>090-092>094-231200-
SOUTH-CENTRAL ILLINOIS

CITY           SKY/WX    TMP DP  RH WIND       PRES   REMARKS
CARBONDALE     CLEAR     41  38  89 CALM      30.07R
CAIRO*         CLEAR     46  38  74 N3        30.05R
MARION         CLEAR     43  39  87 N5        30.07R
MT. VERNON     CLEAR     45  28  53 NE9       30.09R
CENTRALIA*       N/A     44  36  72 CALM      30.09R
SALEM*         CLEAR     45  38  77 NE7       30.09R
METROPOLIS*    CLEAR     45  36  69 CALM      30.05R
$$

ILZ067-068-072-073-078-083-087-091-231200-
SOUTHEAST ILLINOIS

CITY           SKY/WX    TMP DP  RH WIND       PRES   REMARKS
FAIRFIELD*     CLEAR     45  37  76 NE7       30.09R
HARRISBURG*    CLEAR     48  37  66 NE7       30.08R
ROBINSON*      CLEAR     39  33  78 NE5       30.12R
CARMI*         CLEAR     46  40  81 NE7       30.08R
$$

ABBREVIATIONS USED IN REMARKS
   TC - TEMPERATURE IN CELSIUS
  WCI - WIND CHILL INDEX
   HX - HEAT INDEX
  VSB - VISIBILITY
$$




USA.gov is the U.S. government's official web portal to all federal, state and local government web resources and services.